Time,TemperatureF,DewpointF,PressureIn,WindDirection,WindDirectionDegrees,WindSpeedMPH,WindSpeedGustMPH,Humidity,HourlyPrecipIn,Conditions,Clouds,dailyrainin,SoftwareType,DateUTC
2013-06-22 10:02:00,69.0,63.0,-100.00,East,85,2.0,9.0,83,-99.99,,,-99.99,,2013-06-22 15:02:00,
2013-06-22 10:12:00,69.0,63.0,-100.00,East,85,2.0,9.0,83,-99.99,,,-99.99,,2013-06-22 15:12:00,
2013-06-22 10:43:00,70.0,64.0,-100.00,ESE,120,0.0,1.0,83,-99.99,,,-99.99,,2013-06-22 15:43:00,
2013-06-22 10:53:00,70.0,64.0,-100.00,ESE,120,0.0,1.0,83,-99.99,,,-99.99,,2013-06-22 15:53:00,
2013-06-22 11:02:00,70.0,64.0,-100.00,ESE,120,0.0,1.0,83,-99.99,,,-99.99,,2013-06-22 16:02:00,
2013-06-22 11:12:00,70.0,64.0,-100.00,ESE,120,0.0,1.0,83,-99.99,,,-99.99,,2013-06-22 16:12:00,
2013-06-22 11:43:00,69.0,65.0,-100.00,ESE,115,3.0,6.0,87,-99.99,,,-99.99,,2013-06-22 16:43:00,
2013-06-22 11:52:00,69.0,65.0,-100.00,ESE,115,3.0,6.0,87,-99.99,,,-99.99,,2013-06-22 16:52:00,
2013-06-22 12:02:00,69.0,65.0,-100.00,ESE,115,3.0,6.0,87,-99.99,,,-99.99,,2013-06-22 17:02:00,
2013-06-22 12:11:00,69.0,65.0,-100.00,ESE,115,3.0,6.0,87,-99.99,,,-99.99,,2013-06-22 17:11:00,
2013-06-22 12:43:00,69.0,67.0,-100.00,ENE,60,7.0,9.0,91,-99.99,,,-99.99,,2013-06-22 17:43:00,
2013-06-22 12:52:00,69.0,67.0,-100.00,ENE,60,7.0,9.0,91,-99.99,,,-99.99,,2013-06-22 17:52:00,
2013-06-22 13:02:00,69.0,67.0,-100.00,ENE,60,7.0,9.0,91,-99.99,,,-99.99,,2013-06-22 18:02:00,
2013-06-22 13:12:00,69.0,67.0,-100.00,ENE,60,7.0,9.0,91,-99.99,,,-99.99,,2013-06-22 18:12:00,
2013-06-22 13:43:00,71.0,65.0,-100.00,East,80,7.0,12.0,82,-99.99,,,-99.99,,2013-06-22 18:43:00,
2013-06-22 13:52:00,71.0,65.0,-100.00,East,80,7.0,12.0,82,-99.99,,,-99.99,,2013-06-22 18:52:00,
2013-06-22 14:01:00,71.0,65.0,-100.00,East,80,7.0,12.0,82,-99.99,,,-99.99,,2013-06-22 19:01:00,
2013-06-22 14:11:00,71.0,65.0,-100.00,East,80,7.0,12.0,82,-99.99,,,-99.99,,2013-06-22 19:11:00,
2013-06-22 14:43:00,71.0,65.0,-100.00,ENE,70,6.0,9.0,81,-99.99,,,-99.99,,2013-06-22 19:43:00,
2013-06-22 14:53:00,71.0,65.0,-100.00,ENE,70,6.0,9.0,81,-99.99,,,-99.99,,2013-06-22 19:53:00,
2013-06-22 15:02:00,71.0,65.0,-100.00,ENE,70,6.0,9.0,81,-99.99,,,-99.99,,2013-06-22 20:02:00,
2013-06-22 15:11:00,71.0,65.0,-100.00,ENE,70,6.0,9.0,81,-99.99,,,-99.99,,2013-06-22 20:11:00,
2013-06-22 15:43:00,72.0,65.0,-100.00,East,90,6.0,8.0,80,-99.99,,,-99.99,,2013-06-22 20:43:00,
2013-06-22 15:53:00,72.0,65.0,-100.00,East,90,6.0,8.0,80,-99.99,,,-99.99,,2013-06-22 20:53:00,
2013-06-22 16:01:00,72.0,65.0,-100.00,East,90,6.0,8.0,80,-99.99,,,-99.99,,2013-06-22 21:01:00,
2013-06-22 16:11:00,72.0,65.0,-100.00,East,90,6.0,8.0,80,-99.99,,,-99.99,,2013-06-22 21:11:00,
2013-06-22 17:43:00,75.0,65.0,-100.00,NE,45,2.0,6.0,73,-99.99,,,-99.99,,2013-06-22 22:43:00,
2013-06-22 17:52:00,75.0,65.0,-100.00,NE,45,2.0,6.0,73,-99.99,,,-99.99,,2013-06-22 22:52:00,
2013-06-22 18:01:00,75.0,65.0,-100.00,NE,45,2.0,6.0,73,-99.99,,,-99.99,,2013-06-22 23:01:00,
2013-06-22 18:11:00,75.0,65.0,-100.00,NE,45,2.0,6.0,73,-99.99,,,-99.99,,2013-06-22 23:11:00,
2013-06-22 19:42:00,76.0,66.0,-100.00,NE,50,2.0,6.0,70,-99.99,,,-99.99,,2013-06-23 00:42:00,
2013-06-22 19:53:00,76.0,66.0,-100.00,NE,50,2.0,6.0,70,-99.99,,,-99.99,,2013-06-23 00:53:00,
2013-06-22 20:01:00,76.0,66.0,-100.00,NE,50,2.0,6.0,70,-99.99,,,-99.99,,2013-06-23 01:01:00,
2013-06-22 20:11:00,76.0,66.0,-100.00,NE,50,2.0,6.0,70,-99.99,,,-99.99,,2013-06-23 01:11:00,
2013-06-22 20:42:00,74.0,66.0,-100.00,NE,40,3.0,7.0,75,-99.99,,,-99.99,,2013-06-23 01:42:00,
2013-06-22 20:52:00,74.0,66.0,-100.00,NE,40,3.0,7.0,75,-99.99,,,-99.99,,2013-06-23 01:52:00,
2013-06-22 21:01:00,74.0,66.0,-100.00,NE,40,3.0,7.0,75,-99.99,,,-99.99,,2013-06-23 02:01:00,
2013-06-22 21:11:00,74.0,66.0,-100.00,NE,40,3.0,7.0,75,-99.99,,,-99.99,,2013-06-23 02:11:00,
2013-06-22 21:41:00,69.0,67.0,-100.00,NE,45,4.0,8.0,92,-99.99,,,-99.99,,2013-06-23 02:41:00,
2013-06-22 21:52:00,69.0,67.0,-100.00,NE,45,4.0,8.0,92,-99.99,,,-99.99,,2013-06-23 02:52:00,
2013-06-22 22:01:00,69.0,67.0,-100.00,NE,45,4.0,8.0,92,-99.99,,,-99.99,,2013-06-23 03:01:00,
2013-06-22 22:11:00,69.0,67.0,-100.00,NE,45,4.0,8.0,92,-99.99,,,-99.99,,2013-06-23 03:11:00,
2013-06-22 22:41:00,66.0,64.0,-100.00,NNE,25,3.0,7.0,96,-99.99,,,-99.99,,2013-06-23 03:41:00,
2013-06-22 22:52:00,66.0,64.0,-100.00,NNE,25,3.0,7.0,96,-99.99,,,-99.99,,2013-06-23 03:52:00,
2013-06-22 23:01:00,66.0,64.0,-100.00,NNE,25,3.0,7.0,96,-99.99,,,-99.99,,2013-06-23 04:01:00,
2013-06-22 23:11:00,66.0,64.0,-100.00,NNE,25,3.0,7.0,96,-99.99,,,-99.99,,2013-06-23 04:11:00,
2013-06-22 23:42:00,62.0,61.0,-100.00,North,10,3.0,7.0,96,-99.99,,,-99.99,,2013-06-23 04:42:00,
2013-06-22 23:52:00,62.0,61.0,-100.00,North,10,3.0,7.0,96,-99.99,,,-99.99,,2013-06-23 04:52:00,